Minneapolis, MN

3:13 AM CDT on May 28, 2018 (GMT -0500)
Minneapolis-Saint Paul International

Weather History for KMSP - October, 2014

Change the Weather History Date:

Friday, October 17, 2014

  Actual Average Record
Temperature  
Mean Temperature 54 °F 48 °F  
Max Temperature 58 °F 58 °F 84 °F (1910)
Min Temperature 49 °F 39 °F 22 °F (1948)
Degree Days  
Heating Degree Days 11 17  
Month to date heating degree days 258 230  
Since 1 July heating degree days 389 403  
Cooling Degree Days 0 0  
Month to date cooling degree days 0 3  
Year to date cooling degree days 759 750  
Growing Degree Days 2 (Base 50)    
Moisture  
Dew Point 43 °F    
Average Humidity 69    
Maximum Humidity 77    
Minimum Humidity 61    
Precipitation  
Precipitation 0.00 in 0.08 in 1.24 in (1879)
Month to date precipitation 1.61 1.50  
Year to date precipitation 33.53 26.75  
Snow  
Snow 0.00 in 0.00 in T in (2004)
Month to date snowfall 0.0 0.1  
Since 1 July snowfall 0.0 0.1  
Since 1 September snowfall 0.0 0.1  
Snow Depth 0.00 in    
Sea Level Pressure  
Sea Level Pressure 29.79 in    
Wind  
Wind Speed 16 mph (NW)    
Max Wind Speed 25 mph    
Max Gust Speed 33 mph    
Visibility 10 miles    
Events      
T = Trace of Precipitation, MM = Missing Value Source: NWS Daily Summary

Daily Weather History Graph

Daily Weather History Graph

Search for Another Location

Airport or City:

Astronomy

Oct. 17, 2014 Rise Set
Actual Time 7:31 AM CDT 6:24 PM CDT
Civil Twilight 7:01 AM CDT 6:54 PM CDT
Nautical Twilight 6:27 AM CDT 7:28 PM CDT
Astronomical Twilight 5:53 AM CDT 8:02 PM CDT
Moon 1:21 AM CDT (10/17) 3:24 PM CDT (10/17)
Length of Visible Light 11h 52m
Length of Day
10h 53m
Waning Crescent, 32% of the Moon is Illuminated
Oct 17
Waning Crescent
Oct 23
New
Oct 30
First Quarter
Nov 6
Full
Nov 14
Last Quarter

Hourly Weather History & Observations

Time (CDT) Temp. Dew Point Humidity Pressure Visibility Wind Dir Wind Speed Gust Speed Precip Events Conditions
12:53 AM 57.9 °F 46.9 °F 67% 29.58 in 10.0 mi WNW 15.0 mph 24.2 mph N/A   Overcast
1:53 AM 55.9 °F 46.9 °F 72% 29.59 in 10.0 mi West 17.3 mph 28.8 mph N/A   Overcast
2:22 AM 55.0 °F 46.9 °F 74% 29.60 in 10.0 mi West 18.4 mph 25.3 mph N/A   Overcast
2:53 AM 53.1 °F 44.1 °F 71% 29.60 in 10.0 mi NW 23.0 mph 29.9 mph N/A   Overcast
2:56 AM 53.1 °F 44.1 °F 71% 29.60 in 10.0 mi WNW 15.0 mph 29.9 mph N/A   Overcast
3:53 AM 53.1 °F 44.1 °F 71% 29.61 in 10.0 mi WNW 16.1 mph 23.0 mph N/A   Overcast
3:57 AM - - N/A% - - WNW 17.3 mph 26.5 mph N/A   Overcast
4:53 AM 53.1 °F 45.0 °F 74% 29.62 in 10.0 mi WNW 13.8 mph - N/A   Overcast
5:53 AM 53.1 °F 45.0 °F 74% 29.63 in 10.0 mi WNW 16.1 mph - N/A   Overcast
6:53 AM 52.0 °F 44.1 °F 74% 29.65 in 10.0 mi WNW 16.1 mph 24.2 mph N/A   Overcast
7:53 AM 51.1 °F 43.0 °F 74% 29.68 in 10.0 mi WNW 16.1 mph - N/A   Overcast
8:53 AM 51.1 °F 42.1 °F 71% 29.72 in 10.0 mi NW 17.3 mph 29.9 mph N/A   Overcast
9:53 AM 50.0 °F 43.0 °F 77% 29.74 in 10.0 mi WNW 19.6 mph 29.9 mph N/A   Overcast
10:53 AM 52.0 °F 43.0 °F 71% 29.76 in 10.0 mi NW 16.1 mph 25.3 mph N/A   Overcast
11:53 AM 55.0 °F 44.1 °F 67% 29.78 in 10.0 mi NW 24.2 mph 31.1 mph N/A   Overcast
12:04 PM 55.0 °F 44.1 °F 67% 29.78 in 10.0 mi NW 19.6 mph 27.6 mph N/A   Overcast
12:53 PM 54.0 °F 43.0 °F 66% 29.81 in 10.0 mi NW 20.7 mph 27.6 mph N/A   Overcast
1:53 PM 55.0 °F 42.1 °F 62% 29.82 in 10.0 mi NNW 20.7 mph 28.8 mph N/A   Overcast
2:53 PM 54.0 °F 42.1 °F 64% 29.86 in 10.0 mi NNW 17.3 mph - N/A   Overcast
3:09 PM 54.0 °F 43.0 °F 66% 29.86 in 10.0 mi NNW 15.0 mph 25.3 mph N/A   Overcast
3:53 PM 53.1 °F 43.0 °F 69% 29.89 in 10.0 mi NNW 20.7 mph 28.8 mph N/A   Overcast
4:53 PM 53.1 °F 43.0 °F 69% 29.92 in 10.0 mi North 15.0 mph - N/A   Overcast
5:41 PM 53.1 °F 43.0 °F 69% 29.94 in 10.0 mi NW 10.4 mph - N/A   Mostly Cloudy
5:53 PM 53.1 °F 43.0 °F 69% 29.95 in 10.0 mi NW 9.2 mph - N/A   Mostly Cloudy
6:53 PM 53.1 °F 41.0 °F 64% 29.97 in 10.0 mi NNW 12.7 mph - N/A   Mostly Cloudy
7:53 PM 52.0 °F 39.9 °F 63% 30.00 in 10.0 mi NW 8.1 mph - N/A   Mostly Cloudy
8:53 PM 51.1 °F 41.0 °F 68% 30.02 in 10.0 mi WNW 8.1 mph - N/A   Mostly Cloudy
9:53 PM 50.0 °F 39.0 °F 66% 30.04 in 10.0 mi NW 12.7 mph 19.6 mph N/A   Mostly Cloudy
10:53 PM 50.0 °F 39.9 °F 68% 30.06 in 10.0 mi NW 11.5 mph - N/A   Overcast
11:53 PM 51.1 °F 39.9 °F 66% 30.06 in 10.0 mi NNW 16.1 mph 20.7 mph N/A   Overcast